Regional Weather Roundup
Issued by NWS Goodland, KS

Home | Current Version | Previous Version | Text Only | Print | Product List | Glossary On
Versions: 1 2 3 4 5 6 7 8 9 10 11 12 13 14 15 16 17 18 19 20 21 22 23 24 25 26 27 28 29 30 31 32 33 34 35 36 37 38 39 40 41 42 43 44 45 46 47 48 49 50
000
ASUS43 KGLD 240708
RWRGLD

GOODLAND FORECAST AREA HOURLY WEATHER ROUNDUP
NATIONAL WEATHER SERVICE GOODLAND KS
100 AM MDT MON JUL 24 2017

...OFFICIAL OBSERVATIONS...

CITY           SKY/WX    TMP DP  RH WIND       PRES   REMARKS
GOODLAND KS    CLEAR     68  57  68 S8        30.09S
HILL CITY KS   CLEAR     70  66  87 E5        30.03R
IMPERIAL NEB   CLEAR     70  54  56 S9        30.05S
MCCOOK NEB     CLEAR     70  65  84 SE7       30.03S
AKRON CO       CLEAR     71  54  54 S15       30.12F
BURLINGTON CO  CLEAR     68  57  68 S10       30.13S
LIMON CO       CLEAR     61  57  87 SE7       30.20S
$$

...UNOFFICIAL OBSERVATIONS...

CITY           SKY/WX    TMP DP  RH WIND       PRES   REMARKS
LENORA KS        N/A     70  32  24 MISG        N/A
NORTON KS      CLEAR     70  63  78 E6        30.02
SHARON SPRINGS   N/A     67  60  77 S8          N/A
TRIBUNE KS     CLEAR     66  59  77 SW5       30.12
TRENTON NEB      N/A     69  32  25 S6          N/A
KIT CARSON CO    N/A     64  55  73 CALM        N/A
YUMA CO        FAIR      64  50  59 S8        30.09F
$$




USA.gov is the U.S. government's official web portal to all federal, state and local government web resources and services.